FW4072 Weather Reports


Display with metric or nautical units.
time (UTC)temp
F
wind
direction
speed
MPH
gust
MPH
rain 1hr
in
rain 24hr
in
rain mn
in
humidity
%
barometer
mb
20260503183730 53 0.0 0.0 0.00 0.00 0.00 37 1017.9
20260503182831 54 0.0 0.0 0.00 0.00 0.00 34 1017.8
20260503181028 54 135 1.0 2.0 0.00 0.00 0.00 33 1017.8
20260503180128 55 135 1.0 2.0 0.00 0.00 0.00 31 1017.8
20260503175229 55 0.0 1.0 0.00 0.00 0.00 29 1017.7
20260503174326 56 0.0 1.0 0.00 0.00 0.00 27 1017.6
20260503173426 57 0.0 2.0 0.00 0.00 0.00 26 1017.5
20260503172525 57 0.0 1.0 0.00 0.00 0.00 25 1017.6
20260503171624 57 0.0 2.0 0.00 0.00 0.00 23 1017.5
20260503170724 58 0.0 1.0 0.00 0.00 0.00 21 1017.5
20260503131237 69 0.0 2.0 0.00 0.00 0.00 1019.3
20260503130337 69 113 1.0 2.0 0.00 0.00 0.00 1019.5
20260503110629 69 135 1.0 2.0 0.00 0.00 0.00 1020.7
20260503081517 64 135 1.0 4.0 0.00 0.00 0.00 1022.5
20260503080616 65 1.0 3.0 0.00 0.00 0.00 1022.5
20260503072133 62 135 1.0 2.0 0.00 0.00 0.00 13 1022.5
20260503071213 61 113 1.0 2.0 0.00 0.00 0.00 19 1022.5
20260503070312 60 158 1.0 3.0 0.00 0.00 0.00 16 1022.5
20260503055127 50 113 1.0 2.0 0.00 0.00 0.00 49 1022.6
20260503054206 49 135 1.0 2.0 0.00 0.00 0.00 52 1022.6
20260503053307 47 0.0 2.0 0.00 0.00 0.00 55 1022.6
20260503052406 46 0.0 2.0 0.00 0.00 0.00 59 1022.7
20260503051504 44 0.0 2.0 0.00 0.00 0.00 61 1022.8
20260503050604 43 0.0 2.0 0.00 0.00 0.00 63 1022.6
20260503045743 42 135 1.0 2.0 0.00 0.00 0.00 67 1022.7
20260503044822 40 0.0 2.0 0.00 0.00 0.00 71 1022.5
20260503043902 37 113 1.0 2.0 0.00 0.00 0.00 75 1022.5
20260503042100 36 0.0 2.0 0.00 0.00 0.00 77 1022.5
20260503041200 36 0.0 2.0 0.00 0.00 0.00 77 1022.7
20260503040259 35 0.0 2.0 0.00 0.00 0.00 77 1022.5
20260503035418 35 0.0 2.0 0.00 0.00 0.00 77 1022.5
20260503034458 34 0.0 1.0 0.00 0.00 0.00 77 1022.4
20260503033557 34 0.0 2.0 0.00 0.00 0.00 78 1022.5
20260503032656 33 1.0 2.0 0.00 0.00 0.00 78 1022.5
20260503031756 33 0.0 2.0 0.00 0.00 0.00 78 1022.5
20260503030855 32 0.0 1.0 0.00 0.00 0.00 77 1022.3
20260503025054 32 0.0 0.0 0.00 0.00 0.00 76 1022.2
20260503024154 33 0.0 0.0 0.00 0.00 0.00 76 1022.4
20260503023315 33 0.0 0.0 0.00 0.00 0.00 76 1022.3
20260503022352 33 0.0 1.0 0.00 0.00 0.00 76 1022.3
20260503021452 33 0.0 0.0 0.00 0.00 0.00 76 1022.3
20260503020612 33 0.0 0.0 0.00 0.00 0.00 75 1022.2
20260503015650 33 0.0 0.0 0.00 0.00 0.00 74 1022.3
20260503014810 33 0.0 0.0 0.00 0.00 0.00 74 1022.5
20260503013849 34 0.0 0.0 0.00 0.00 0.00 74 1022.5
20260503012048 34 0.0 1.0 0.00 0.00 0.00 75 1022.5
20260503011147 33 0.0 0.0 0.00 0.00 0.00 74 1022.4
20260503010246 33 0.0 0.0 0.00 0.00 0.00 73 1022.4
20260503005347 34 0.0 0.0 0.00 0.00 0.00 73 1022.3
20260503004445 34 0.0 0.0 0.00 0.00 0.00 72 1022.4
20260503003544 34 0.0 0.0 0.00 0.00 0.00 72 1022.4
20260503002704 34 0.0 0.0 0.00 0.00 0.00 72 1022.4
20260503001743 34 0.0 1.0 0.00 0.00 0.00 71 1022.4
20260503000842 35 0.0 1.0 0.00 0.00 0.00 71 1022.5
20260502235042 35 0.0 0.0 0.00 0.00 0.00 71 1022.6
20260502234201 35 0.0 0.0 0.00 0.00 0.00 70 1022.6
20260502233240 35 0.0 0.0 0.00 0.00 0.00 69 1022.7
20260502232340 35 0.0 0.0 0.00 0.00 0.00 69 1022.8
20260502231439 35 0.0 0.0 0.00 0.00 0.00 68 1022.8
20260502230538 36 0.0 0.0 0.00 0.00 0.00 67 1022.9
20260502225658 36 0.0 0.0 0.00 0.00 0.00 67 1022.9
20260502224737 36 0.0 0.0 0.00 0.00 0.00 66 1023.0
20260502223836 36 0.0 0.0 0.00 0.00 0.00 65 1023.0
20260502222037 37 0.0 0.0 0.00 0.00 0.00 65 1023.2
20260502221135 37 0.0 0.0 0.00 0.00 0.00 64 1023.2
20260502220234 37 0.0 0.0 0.00 0.00 0.00 63 1023.3
20260502215355 37 0.0 0.0 0.00 0.00 0.00 62 1023.2
20260502214434 38 0.0 0.0 0.00 0.00 0.00 61 1023.3
20260502213534 38 0.0 0.0 0.00 0.00 0.00 60 1023.3
20260502212631 38 0.0 1.0 0.00 0.00 0.00 60 1023.3
20260502211730 39 0.0 0.0 0.00 0.00 0.00 59 1023.2
20260502210831 39 0.0 0.0 0.00 0.00 0.00 57 1023.3
20260502205031 40 0.0 0.0 0.00 0.00 0.00 56 1023.4
20260502204128 40 0.0 0.0 0.00 0.00 0.00 54 1023.3
20260502203229 40 0.0 0.0 0.00 0.00 0.00 53 1023.4
20260502202327 41 0.0 0.0 0.00 0.00 0.00 51 1023.5
20260502201428 42 0.0 0.0 0.00 0.00 0.00 50 1023.4
20260502200547 42 0.0 1.0 0.00 0.00 0.00 48 1023.3
20260502195625 42 0.0 1.0 0.00 0.00 0.00 47 1023.3
20260502194744 43 0.0 1.0 0.00 0.00 0.00 46 1023.2
20260502193824 43 0.0 1.0 0.00 0.00 0.00 43 1023.2
20260502192024 44 0.0 1.0 0.00 0.00 0.00 41 1023.2
20260502191122 45 0.0 1.0 0.00 0.00 0.00 39 1023.3
20260502190221 45 0.0 1.0 0.00 0.00 0.00 37 1023.2
20260502185320 46 0.0 0.0 0.00 0.00 0.00 36 1023.0
20260502184420 46 0.0 2.0 0.00 0.00 0.00 34 1023.0